GFSSGP_925_temp_069.txt.gz
Temp
23 23 23 22 19 19 20 23 26 29 26 27 28 28 27 27 27 23 24 24 23 22 22 20 20 21 21 21 20 20 20 20 20 20 21 20 20 20 19 19 19 18 18 18 18 17 17 16 18
23 23 22 20 19 19 21 25 26 27 27 28 29 29 29 26 26 23 23 24 23 22 22 22 20 20 20 20 20 20 19 19 19 20 20 20 19 19 18 18 18 18 18 17 17 17 16 17 18
23 23 19 19 18 19 21 27 28 28 28 29 29 29 29 25 26 24 23 23 23 22 21 22 22 20 20 20 20 19 19 19 19 19 19 19 19 19 18 18 18 17 17 17 17 16 17 18 18
22 21 20 20 19 22 24 27 29 29 28 28 29 28 26 27 26 24 23 23 23 23 22 22 22 21 19 19 19 19 19 19 19 19 19 19 18 18 18 18 18 17 17 17 16 16 18 18 19
22 19 19 19 21 24 26 28 29 29 29 28 28 27 25 25 25 24 23 23 23 22 22 21 21 21 21 20 19 19 18 18 19 19 18 18 18 18 18 18 17 17 17 16 16 17 18 18 18
19 19 19 19 22 25 27 28 29 30 30 30 28 27 24 26 25 24 23 22 22 21 21 20 19 20 20 20 19 19 19 18 19 19 18 17 17 18 17 17 17 17 17 16 16 17 18 18 18
19 18 19 20 23 25 28 28 28 28 29 28 28 27 23 24 24 23 23 22 21 20 20 19 18 19 19 19 19 17 16 18 16 17 17 16 18 18 17 17 17 17 16 15 16 17 18 18 18
20 19 20 22 23 25 28 30 28 28 28 29 28 27 23 22 24 23 22 21 21 20 19 19 18 18 18 18 17 16 17 18 20 15 16 17 18 17 17 17 16 16 16 16 16 17 18 19 19
22 20 20 21 23 25 28 29 29 30 28 29 28 27 25 24 23 23 21 20 20 19 19 18 18 17 17 17 17 17 17 18 19 16 14 16 17 17 17 17 16 16 15 16 16 17 17 18 18
21 19 21 24 25 26 28 27 27 28 27 28 28 24 24 24 23 22 20 18 19 18 17 17 17 17 16 16 16 17 17 15 17 17 17 16 16 16 16 16 16 15 15 16 16 17 17 18 18
21 21 23 25 26 26 26 26 29 28 27 28 28 23 23 23 22 22 24 21 19 18 17 17 17 16 16 15 16 16 16 15 15 15 14 16 15 15 16 15 16 15 15 16 16 16 17 18 18
21 23 24 25 26 26 26 27 26 28 28 28 27 24 23 23 22 22 22 18 18 18 17 17 16 16 16 16 15 15 15 16 15 15 15 15 15 15 14 14 15 15 15 16 16 16 17 18 18
22 23 25 26 26 27 27 26 26 27 27 29 28 26 24 22 22 24 21 20 18 17 16 16 16 16 16 16 15 14 14 14 16 14 14 15 15 14 14 14 15 15 16 16 16 16 17 18 17
24 24 25 26 26 27 27 26 27 26 27 27 27 24 24 23 23 22 21 19 18 17 16 16 16 16 15 15 15 14 14 14 14 15 15 16 15 14 15 15 15 14 16 16 16 17 17 17 17
24 23 24 25 25 26 27 25 25 25 26 26 25 24 23 23 24 21 22 19 18 17 16 16 16 16 15 15 14 14 14 14 15 15 15 16 16 15 15 15 15 16 16 17 16 16 17 17 17
21 22 21 24 25 26 24 24 25 25 25 25 25 23 23 22 23 24 22 19 18 17 17 16 15 15 15 14 14 14 14 14 16 15 15 16 16 15 15 15 15 16 16 17 17 16 17 17 17
20 19 20 23 26 26 24 25 26 26 26 25 25 23 22 22 21 23 21 19 18 17 16 15 15 14 14 14 14 14 15 14 14 14 14 15 16 16 16 16 16 16 17 16 17 17 18 18 17
18 20 20 22 24 25 25 25 27 27 26 25 24 24 23 22 22 22 21 20 19 17 17 15 14 14 13 13 13 13 14 13 14 14 14 15 15 16 16 16 17 16 17 17 17 18 18 18 18
20 21 21 22 23 22 23 25 25 27 25 24 23 24 23 23 23 21 21 20 19 17 16 15 14 13 13 13 13 12 13 13 13 14 14 15 15 15 16 16 17 16 17 16 17 18 18 18 18
20 20 20 22 23 23 24 26 25 26 25 24 24 23 23 23 22 21 20 20 18 17 15 14 14 13 13 13 13 12 12 12 13 13 13 14 14 15 16 16 16 16 17 17 16 18 18 18 18
18 20 21 21 23 23 24 24 25 27 26 26 25 26 25 23 22 20 19 18 17 15 14 14 14 14 14 13 12 12 12 12 12 12 12 13 14 14 15 16 15 16 16 15 15 18 18 18 18
16 21 22 22 22 19 23 21 23 26 27 27 26 23 25 23 22 21 19 18 16 15 15 15 15 13 13 13 12 12 12 12 12 12 12 13 13 14 16 16 15 15 17 17 18 18 18 18 18
16 19 19 19 18 18 21 21 22 24 25 26 26 24 23 23 22 21 20 19 18 15 15 14 15 14 13 13 12 12 12 12 12 12 12 13 14 14 15 16 16 17 17 17 17 17 17 18 17
17 17 18 18 18 16 20 21 21 23 26 26 27 26 25 23 23 21 20 19 18 15 15 14 13 12 13 12 12 12 12 12 12 12 12 12 13 14 15 16 16 16 17 17 17 17 17 17 17
17 15 16 16 17 16 22 22 23 24 27 27 26 25 25 24 23 21 20 19 18 14 14 13 12 12 12 12 12 12 12 12 12 12 12 12 13 14 14 15 16 16 16 17 16 16 16 17 17
16 15 15 16 16 19 22 21 23 26 27 28 27 26 24 22 23 22 21 20 19 16 15 14 13 12 13 12 12 12 13 12 12 12 12 13 13 13 14 15 16 16 16 16 16 16 16 16 16
14 15 17 14 16 15 18 22 25 26 27 27 27 27 24 22 22 22 21 20 19 17 16 16 13 13 12 12 12 12 13 13 13 13 13 13 13 13 14 14 15 15 15 15 15 15 16 15 15
15 17 13 12 15 15 20 21 23 23 26 27 25 25 25 24 24 22 22 21 20 18 17 16 15 14 13 12 13 12 13 13 13 13 13 13 13 13 13 14 14 14 14 14 15 15 15 15 15
17 14 13 14 16 17 17 19 22 22 23 24 24 23 22 23 22 21 23 21 20 19 17 17 16 15 14 13 14 13 12 12 13 13 13 13 13 13 14 14 13 13 14 14 14 14 14 13 14
17 17 15 14 15 17 17 18 22 22 22 22 22 24 23 22 22 21 22 21 20 19 18 17 17 16 15 14 14 14 13 13 13 13 13 13 13 13 13 13 13 14 13 13 13 14 14 13 13

GFSSGP_925_temp_072.txt.gz
Temp
22 22 22 21 18 16 18 20 23 24 26 27 27 26 25 26 26 23 23 23 23 23 22 20 20 21 22 22 22 22 21 21 21 20 20 19 19 19 19 19 18 18 18 18 18 18 18 17 17
22 22 21 17 17 17 18 22 24 24 26 26 27 26 26 24 23 22 22 23 23 23 22 21 21 20 21 21 21 21 20 20 20 20 20 19 19 19 19 18 18 18 18 18 18 18 17 16 17
22 22 18 17 15 16 19 24 26 26 26 27 28 27 25 24 23 23 24 23 22 22 21 21 21 20 20 20 20 20 20 20 20 20 19 20 19 19 18 18 18 18 18 18 17 17 16 17 17
21 19 17 18 18 19 21 24 24 26 27 28 26 25 25 26 24 24 23 23 22 22 21 21 21 20 20 20 19 19 20 20 20 20 20 19 19 19 18 18 18 18 18 18 17 16 17 17 17
21 15 17 17 18 20 22 23 24 26 26 27 27 26 23 23 25 24 23 23 22 22 21 21 21 21 21 20 19 19 19 19 19 19 19 19 18 18 18 18 17 17 17 17 17 17 17 16 16
18 15 16 16 19 22 23 24 25 26 26 27 26 23 23 23 23 23 23 22 22 22 21 20 20 20 20 20 20 19 19 19 19 18 18 18 18 18 18 17 17 17 18 17 17 17 17 17 16
17 14 16 18 19 21 24 24 26 26 26 26 26 23 22 21 23 23 22 22 21 21 20 19 19 19 19 19 19 19 19 17 17 16 17 16 17 17 17 17 17 17 18 17 16 17 17 17 17
17 16 18 18 19 20 23 25 26 27 27 27 26 23 21 22 22 22 22 21 21 20 20 19 19 18 18 19 19 19 17 17 16 16 16 15 17 16 17 17 17 17 17 17 16 17 17 17 16
19 16 15 18 20 22 24 24 25 28 27 27 26 23 24 23 22 21 19 19 19 19 19 19 18 18 18 18 17 17 16 18 17 16 17 16 15 16 17 17 17 17 17 17 17 17 17 17 17
17 16 17 20 21 22 23 23 24 25 26 26 24 21 21 22 21 19 18 17 18 18 18 18 17 17 17 17 16 16 16 16 16 16 16 17 16 15 17 17 17 17 16 17 17 17 17 16 16
17 19 20 21 22 22 22 22 25 25 24 25 25 21 21 21 20 19 18 19 18 18 18 18 17 17 16 16 15 16 16 16 17 17 16 16 16 15 16 16 16 16 16 16 17 17 17 16 15
18 20 21 22 22 22 23 24 23 24 25 26 24 22 21 21 20 19 19 18 18 18 17 17 16 16 15 15 15 16 16 16 15 16 17 15 15 15 15 14 15 15 16 16 16 17 17 17 16
19 20 21 22 22 23 23 23 24 24 25 25 23 22 21 20 20 21 19 18 18 18 17 16 16 16 15 15 15 15 15 15 14 15 15 15 14 15 14 14 15 15 16 16 16 17 17 17 15
21 20 21 22 22 23 23 24 24 25 24 24 22 21 21 20 19 17 17 16 17 17 17 16 16 16 15 16 15 14 14 14 14 14 15 14 15 14 14 14 14 15 16 16 17 17 17 17 16
21 20 21 22 22 22 23 22 22 25 24 24 24 22 21 21 19 18 17 16 17 17 16 16 16 15 16 16 15 14 14 14 14 14 14 14 14 14 13 14 14 15 16 16 16 17 17 17 16
20 20 19 21 22 23 22 22 24 24 23 23 23 21 21 20 21 19 18 17 17 16 16 16 16 15 15 15 15 14 13 14 14 14 14 14 14 14 14 14 15 15 16 16 16 16 17 17 16
18 17 18 20 23 23 22 22 24 25 23 23 22 20 21 20 19 19 18 17 17 17 16 15 15 15 15 14 15 14 14 13 14 14 14 14 14 15 15 15 15 16 16 16 16 16 17 17 16
17 17 18 19 22 22 21 21 23 24 23 24 23 19 22 21 21 18 17 17 16 16 16 16 16 16 14 14 14 14 13 14 14 14 15 15 15 15 15 15 16 16 16 16 16 17 16 17 17
17 17 17 18 21 21 20 21 22 23 24 23 21 20 22 21 21 18 17 16 15 15 16 15 15 15 14 13 13 13 13 13 14 14 14 14 14 14 15 15 15 16 16 16 16 16 16 17 17
17 16 16 19 22 21 19 20 22 23 24 24 22 21 20 21 19 18 16 15 15 14 15 14 14 14 14 13 13 13 13 13 14 13 14 14 14 14 15 15 15 16 16 16 16 16 15 16 17
16 16 17 18 21 20 20 19 21 23 24 24 22 23 21 21 20 18 17 15 14 14 14 13 14 13 14 14 12 12 12 13 13 13 13 13 14 14 14 15 15 16 16 16 16 16 16 16 16
16 18 18 18 19 17 20 16 20 23 23 24 23 21 20 21 21 19 18 15 14 14 13 14 14 14 14 14 12 12 12 12 12 12 13 13 14 14 14 15 14 15 16 16 16 16 17 17 15
15 17 16 17 16 17 19 17 20 22 23 23 23 22 19 21 21 19 18 16 15 13 13 14 14 14 14 13 13 13 12 12 12 12 12 13 13 13 13 14 15 15 16 16 16 16 16 17 17
16 15 16 17 17 15 18 19 20 21 23 24 25 24 20 21 21 20 19 17 14 13 13 13 14 14 13 12 13 12 12 12 11 12 12 12 12 13 13 14 14 14 15 15 14 14 15 16 18
15 13 15 16 15 15 20 20 21 22 24 24 24 24 22 22 21 19 17 16 14 13 13 12 13 12 13 12 12 12 12 12 12 12 12 12 12 12 13 14 14 14 14 14 14 14 14 17 18
15 13 14 15 15 16 20 19 21 24 25 25 25 24 21 21 20 19 18 17 14 13 13 13 12 12 12 12 12 12 12 12 12 12 12 12 12 13 13 14 14 13 14 15 16 15 15 17 17
14 13 15 13 14 14 17 19 23 23 24 25 24 23 19 21 19 19 18 18 15 13 13 13 12 12 12 12 12 12 12 12 11 12 12 12 12 13 13 14 15 15 15 16 16 16 16 16 16
16 16 13 13 14 15 18 20 20 22 23 23 21 20 19 19 20 19 19 18 16 15 13 13 12 12 12 12 12 12 12 12 12 12 12 12 13 13 13 14 14 14 15 15 16 16 16 16 16
14 13 13 14 15 15 16 17 19 18 21 20 20 20 19 19 19 19 19 19 17 15 14 13 12 12 12 12 12 12 12 12 12 12 12 12 13 13 13 13 14 14 14 15 15 15 15 15 15
16 14 13 14 15 15 14 15 15 16 18 20 20 19 18 18 19 19 18 17 17 16 15 14 13 13 12 12 12 12 13 13 13 12 12 12 12 13 13 13 13 13 14 13 13 13 14 13 13

GFSSGP_925_temp_075.txt.gz
Temp
21 21 21 20 18 15 17 19 20 22 25 26 26 25 25 25 25 23 22 24 23 23 23 22 23 23 22 21 20 21 21 21 21 21 20 20 20 20 19 19 19 18 18 18 18 18 18 17 18
21 21 21 15 16 16 17 19 22 22 25 26 25 24 25 25 23 21 21 22 23 23 23 22 22 22 22 21 20 20 20 20 20 20 20 20 20 19 19 19 18 18 18 18 18 18 18 17 17
21 21 17 16 14 15 18 21 23 23 25 25 26 25 24 24 23 21 24 24 23 23 22 22 21 21 21 21 20 20 20 20 20 20 20 20 19 19 19 18 18 18 18 18 18 18 17 17 17
21 18 15 16 16 16 19 22 22 22 25 25 25 25 24 24 22 24 24 24 23 22 22 21 21 21 20 20 20 20 19 19 20 19 19 19 19 19 19 18 18 18 18 18 18 17 17 16 17
20 14 15 15 17 17 20 21 22 23 24 25 25 24 24 23 24 24 23 23 22 21 21 21 21 21 20 20 20 20 19 19 19 19 18 18 18 18 18 18 18 18 18 18 17 17 16 16 17
16 14 14 15 17 19 20 21 23 23 24 24 24 22 22 23 23 22 22 22 22 22 20 20 20 20 20 20 20 20 20 19 19 18 18 17 18 18 18 18 17 17 17 17 17 16 16 16 16
16 14 15 16 18 19 22 22 23 23 23 23 24 22 22 21 22 22 21 21 22 22 21 20 20 19 18 19 19 20 20 19 18 17 17 16 17 17 17 17 17 17 17 17 16 16 16 16 16
15 14 15 16 19 19 22 23 24 24 23 25 23 22 21 20 22 21 21 20 20 20 20 20 19 19 18 18 18 18 19 18 18 16 15 16 16 17 17 18 17 17 17 16 16 16 16 16 16
16 15 13 16 18 20 22 22 23 24 24 24 24 21 23 23 21 20 19 19 19 18 19 19 19 18 18 18 18 18 18 17 17 19 16 16 15 16 16 17 17 17 17 16 16 16 16 16 16
16 13 16 17 20 20 21 21 21 23 22 23 24 21 20 21 19 18 17 16 17 18 18 18 18 18 18 19 18 18 17 16 15 16 16 16 16 16 16 17 17 17 16 16 16 16 16 16 15
16 17 18 19 20 20 20 21 22 22 22 23 23 22 19 19 19 18 17 18 18 19 18 17 17 17 16 17 17 16 16 15 14 15 15 15 15 15 15 16 17 17 16 16 16 16 15 15 15
16 17 19 20 20 20 19 20 21 21 23 23 23 21 19 19 19 18 17 18 18 18 18 17 17 16 16 16 15 15 15 15 15 15 15 16 16 16 16 15 16 16 16 15 16 16 16 15 15
16 18 19 19 19 19 20 20 21 21 22 23 22 20 19 20 19 19 18 19 18 18 17 16 16 16 15 15 15 15 15 15 15 15 15 16 16 15 15 15 15 16 16 15 15 16 15 15 15
18 18 19 19 19 20 20 21 21 22 23 22 21 20 20 19 18 17 17 17 17 18 17 16 16 16 15 15 15 15 15 16 15 14 14 14 15 14 15 14 15 15 16 15 16 15 15 15 16
18 17 18 19 19 19 20 20 19 22 22 22 21 21 20 19 18 18 17 16 18 18 17 16 15 16 15 15 15 14 14 14 15 14 13 13 14 15 14 14 14 15 16 15 15 15 16 16 16
18 18 17 20 19 20 20 20 21 21 21 21 21 20 20 18 19 19 18 17 18 18 17 16 15 15 15 15 15 14 14 13 13 14 15 13 14 15 14 13 14 15 15 15 15 15 15 15 15
16 16 16 18 20 20 19 20 21 21 22 21 21 19 20 19 18 17 16 17 18 17 16 15 15 15 15 15 15 14 13 13 14 14 13 13 14 14 13 13 14 15 15 15 15 15 16 15 15
15 15 16 17 19 20 19 18 19 21 21 20 20 20 19 20 20 18 16 16 17 16 16 15 15 15 15 15 15 13 13 13 13 14 14 13 14 14 13 14 14 15 14 15 15 16 16 16 16
16 16 15 16 18 18 18 18 19 20 19 19 21 22 18 19 22 17 15 15 15 14 15 15 15 14 15 14 14 14 13 13 14 14 13 13 14 13 14 14 14 15 15 15 15 16 16 15 15
15 15 15 17 18 19 17 17 19 20 19 21 22 22 20 18 16 15 14 14 14 13 14 14 14 15 15 14 13 13 13 13 13 14 14 14 14 14 14 14 14 14 14 15 15 16 15 15 15
15 15 16 16 18 19 18 18 19 21 20 21 21 22 21 19 17 16 15 14 13 13 13 14 15 15 14 13 13 13 13 12 13 14 14 14 14 14 13 14 14 14 14 15 15 16 16 15 15
14 16 17 16 16 16 18 16 18 19 20 22 21 20 19 19 19 17 15 14 14 13 13 14 14 14 14 13 12 14 13 13 12 13 13 13 14 13 13 13 14 15 15 15 16 16 16 16 15
14 16 15 15 15 15 16 15 18 20 21 22 22 22 19 19 19 18 16 15 14 13 13 13 13 12 13 13 12 12 12 12 13 12 13 13 13 13 13 13 14 14 15 15 15 15 16 16 15
16 14 14 15 15 14 16 16 16 19 21 23 23 23 20 18 19 19 18 15 14 14 13 13 13 13 13 13 12 12 12 12 12 12 12 13 13 12 13 13 14 14 14 14 15 15 15 15 16
15 13 14 14 14 15 17 17 18 20 22 23 23 24 22 18 19 18 16 14 14 14 13 12 13 12 12 13 13 13 13 12 13 12 12 12 12 13 13 13 13 13 13 14 14 14 15 14 14
14 13 14 14 14 15 19 18 20 22 23 22 22 22 21 19 20 18 16 15 14 14 13 13 12 12 12 12 12 12 13 12 12 12 12 12 12 12 13 13 13 13 13 14 14 14 14 14 13
13 12 14 13 13 13 15 18 21 21 21 20 18 19 20 18 20 18 16 15 14 14 13 13 12 12 12 12 12 12 12 12 12 12 12 12 12 12 12 13 13 13 13 13 13 13 13 13 13
14 15 13 13 14 14 16 19 17 16 17 18 18 17 16 18 17 17 17 15 14 13 13 13 13 12 12 12 12 12 12 12 12 12 12 12 12 12 12 13 13 13 13 13 13 12 13 13 13
13 13 13 13 14 15 15 16 16 14 15 17 17 16 15 17 17 17 16 15 14 13 13 13 12 12 12 11 12 12 12 12 12 12 12 12 12 12 12 13 13 13 13 13 13 13 12 12 12
14 14 12 13 14 13 13 15 15 15 15 16 16 16 14 15 16 16 15 14 14 13 13 12 12 12 12 12 12 11 12 12 12 12 12 12 12 12 12 13 13 13 13 13 13 13 13 13 13

GFSSGP_925_temp_078.txt.gz
Temp
21 20 21 19 18 14 16 18 19 21 23 24 24 24 23 25 23 23 23 24 24 24 24 23 21 20 21 21 21 21 22 22 22 21 21 20 20 20 20 19 19 19 19 18 18 18 18 17 18
20 20 20 14 16 16 16 17 20 21 23 23 24 24 25 26 22 21 22 24 24 24 23 23 21 19 20 20 20 20 21 22 22 21 21 20 19 19 20 19 18 18 18 18 18 18 17 17 18
20 20 17 15 12 16 17 18 21 22 22 24 25 24 25 25 22 21 24 25 24 23 23 22 21 18 19 19 19 20 20 21 21 20 20 20 20 19 19 19 18 19 18 18 18 17 17 17 17
20 17 14 15 15 16 18 22 21 21 23 23 24 25 24 24 22 24 25 24 23 22 23 22 21 19 18 19 19 18 19 20 20 20 20 19 20 20 19 18 18 18 18 18 18 17 17 17 17
18 13 14 14 15 17 17 19 21 21 23 23 24 24 23 23 23 24 24 23 23 22 22 22 21 19 19 20 19 18 19 19 19 19 19 19 19 18 19 18 18 18 18 18 17 17 17 17 17
15 13 13 13 15 19 19 20 22 22 22 22 22 23 23 22 22 23 23 23 22 22 21 21 20 19 19 20 20 19 19 19 19 19 18 18 18 18 18 18 18 18 18 17 17 17 16 16 16
15 13 14 14 17 18 21 19 21 22 22 22 23 22 22 21 22 23 23 22 21 21 20 20 20 19 19 19 19 19 19 19 18 18 17 17 16 18 17 17 18 18 17 17 17 16 16 16 16
13 13 14 14 17 18 21 23 23 23 22 24 22 23 23 20 21 21 21 21 21 20 20 20 19 19 18 18 18 18 18 18 18 17 17 16 16 15 16 17 17 17 17 17 16 16 16 16 16
14 14 12 15 17 19 21 21 21 23 23 22 24 23 21 21 20 20 19 20 19 19 19 19 19 19 18 18 18 18 18 18 17 17 17 17 17 16 15 16 17 17 17 16 16 16 16 16 16
15 12 16 15 18 19 20 20 20 22 21 21 22 23 20 19 18 17 16 16 17 18 18 18 18 18 17 17 18 19 18 17 17 16 17 17 17 18 18 16 16 16 17 16 16 16 16 16 16
15 15 17 18 18 19 18 19 20 21 20 21 22 23 19 18 17 17 17 17 17 18 18 18 18 17 17 17 18 19 17 16 15 16 16 15 16 17 15 16 16 15 17 15 15 15 16 16 15
15 15 16 18 19 18 18 19 19 19 20 22 21 20 19 18 17 17 17 17 18 18 18 17 17 17 16 16 18 18 16 15 14 15 14 15 15 14 15 16 15 15 16 15 15 15 16 15 15
15 16 17 18 18 17 18 18 19 19 19 20 20 19 18 18 18 19 18 18 19 18 18 16 16 16 16 16 16 16 16 15 15 14 14 15 14 14 15 16 15 16 15 15 15 15 15 15 15
17 17 17 17 17 18 19 19 18 19 19 19 20 19 19 17 18 17 17 18 18 18 18 16 16 16 15 15 16 15 15 15 15 14 14 15 15 15 14 14 16 15 15 15 15 15 15 15 15
17 16 16 16 17 17 18 17 18 19 19 19 20 19 18 18 18 17 18 18 18 18 18 16 15 15 15 15 16 15 15 15 14 14 14 14 14 14 15 15 15 14 15 15 15 15 15 15 14
16 16 15 18 18 18 18 19 19 19 19 19 18 18 18 18 18 19 19 18 19 18 18 16 15 15 15 15 15 14 14 14 14 14 14 14 14 14 14 14 14 14 15 15 15 15 14 14 15
14 13 15 16 19 18 17 19 20 20 19 19 18 18 18 17 17 19 19 19 19 18 18 15 15 14 15 14 14 14 13 13 14 14 13 13 14 14 14 14 13 14 15 14 15 14 15 14 13
13 14 14 14 17 17 16 16 17 18 18 18 18 17 17 18 19 20 17 17 18 17 17 15 15 14 14 14 14 13 13 13 13 13 13 13 13 13 14 14 13 13 14 14 14 15 15 15 14
15 14 13 15 16 16 17 16 17 17 17 17 17 17 17 18 21 20 16 16 16 16 16 15 15 14 14 14 13 13 13 13 13 13 14 13 13 13 14 14 13 13 14 14 14 14 14 13 13
13 13 13 15 16 16 16 16 18 17 17 18 19 18 18 18 17 14 14 14 15 14 14 14 14 14 14 15 14 13 13 13 13 14 13 13 13 13 13 13 13 13 13 13 13 14 13 12 13
13 13 13 14 16 16 15 16 17 19 18 18 18 19 19 19 16 14 14 14 13 14 14 13 13 14 13 15 14 13 13 13 13 13 13 13 13 13 13 13 13 13 14 13 14 14 14 13 13
12 14 15 15 14 14 16 14 17 18 19 19 19 19 19 17 18 15 14 13 14 14 13 13 13 13 13 13 13 13 13 13 13 13 14 13 13 14 14 14 13 13 14 13 13 14 15 15 13
14 15 14 14 13 13 14 13 16 18 18 18 19 20 19 17 17 16 15 14 14 14 13 13 13 13 13 13 12 14 13 13 13 13 13 13 13 13 14 13 14 14 14 14 14 14 15 15 14
15 14 14 13 13 13 14 14 15 17 19 20 21 22 21 18 17 17 15 14 14 14 13 13 13 13 12 12 12 13 13 13 13 13 12 13 13 13 13 13 12 13 14 14 14 15 15 16 16
13 13 12 13 13 14 16 14 16 19 20 20 20 19 19 19 16 16 14 13 14 13 14 14 13 12 12 11 12 12 13 14 13 13 13 12 12 13 12 13 12 13 13 13 15 15 15 15 15
12 13 12 14 14 13 17 15 18 18 17 18 18 17 16 17 17 16 15 14 14 14 14 13 12 12 11 11 11 12 13 13 13 13 12 12 12 12 12 12 12 11 13 13 13 14 13 13 13
13 13 13 13 13 14 15 16 19 16 16 16 16 15 15 15 17 17 16 14 14 14 14 13 12 12 12 12 11 11 12 12 13 13 12 12 12 12 12 12 12 12 12 12 12 13 13 13 13
14 14 13 12 13 14 15 16 16 15 15 15 15 14 13 15 17 16 15 14 14 14 13 13 12 12 12 12 12 12 11 12 12 12 13 13 12 12 12 12 12 12 13 13 12 12 12 12 13
13 13 12 13 13 13 13 15 16 15 15 15 15 14 13 15 16 15 13 13 14 14 13 13 12 12 12 12 12 12 12 11 12 12 12 12 12 13 12 12 12 12 12 12 12 12 12 12 12
14 13 12 13 13 13 13 14 14 14 15 15 13 13 12 12 13 13 13 14 14 13 12 12 12 12 12 12 12 12 12 11 11 12 12 12 12 12 12 12 12 12 12 12 12 12 12 12 12

GFSSGP_925_temp_081.txt.gz
Temp
20 20 20 20 23 21 22 24 21 24 25 25 25 26 28 27 26 28 22 24 25 25 24 22 22 21 21 21 22 22 21 22 21 22 21 21 21 20 20 20 19 19 19 18 18 18 18 18 18
19 19 19 20 23 24 25 21 23 25 26 24 25 25 26 28 25 25 24 24 24 25 24 21 21 19 20 20 21 21 21 21 21 21 21 21 20 20 20 19 19 19 19 19 18 18 18 18 18
19 20 22 23 21 24 25 22 25 25 24 24 27 26 26 27 24 24 24 24 23 23 23 22 20 18 19 20 20 21 21 20 20 20 20 20 20 21 20 20 19 19 19 19 18 18 18 18 18
19 20 19 21 21 22 24 24 22 23 25 25 26 27 26 24 24 23 25 24 23 23 23 22 21 18 18 20 20 21 21 20 19 19 20 21 21 20 20 19 19 19 19 19 18 17 18 17 17
18 19 21 19 19 21 20 22 22 24 24 25 26 26 26 24 24 23 24 24 24 23 22 21 20 18 18 19 20 20 21 21 20 19 20 20 19 19 19 19 19 19 19 18 18 17 17 17 17
20 19 20 21 20 21 23 22 23 24 24 25 24 25 26 23 23 23 23 23 23 23 22 21 20 18 18 18 19 19 20 20 20 18 19 19 20 19 18 18 18 19 18 18 17 17 17 17 17
20 19 21 19 19 20 24 22 23 25 25 25 25 25 25 23 22 24 23 23 22 22 22 21 20 19 18 18 18 19 19 20 19 19 18 19 18 17 16 17 18 18 18 18 17 17 17 16 17
19 20 18 18 20 21 23 22 24 24 25 24 24 25 26 24 21 21 21 21 21 21 21 20 20 19 18 18 18 18 18 19 19 18 18 17 18 19 19 17 17 17 17 17 17 17 17 16 17
16 19 19 19 20 22 22 22 23 23 24 24 25 25 24 20 19 19 18 18 19 20 20 20 19 18 18 18 18 18 17 18 18 18 18 18 18 17 17 16 17 17 17 16 17 17 16 16 16
19 18 20 19 20 21 22 22 23 23 23 24 24 24 20 19 19 20 20 20 18 18 19 19 19 18 18 18 18 17 17 17 17 17 17 17 17 18 18 18 17 16 16 17 17 16 16 16 15
17 18 18 19 20 20 21 21 22 22 22 23 23 24 24 21 20 20 20 20 19 17 18 19 19 18 18 17 17 17 17 16 17 16 17 16 17 17 17 17 17 16 15 15 16 16 15 15 15
17 17 19 19 21 21 21 22 21 22 22 24 23 23 23 23 22 21 21 21 18 17 17 17 17 17 17 17 17 17 17 16 16 16 16 16 15 15 14 14 16 15 15 15 15 15 15 14 14
16 17 18 19 19 20 20 20 20 21 22 23 22 21 22 22 23 23 22 21 18 18 16 17 17 16 16 16 16 17 17 17 16 15 16 15 14 14 14 14 16 15 15 15 15 15 14 14 14
17 18 18 18 19 19 19 20 20 21 22 22 21 22 23 23 23 22 20 19 18 18 16 16 16 16 16 16 17 17 17 16 15 15 15 15 14 14 14 14 15 14 15 14 15 15 14 14 14
17 17 18 19 19 19 20 19 19 21 22 21 22 23 23 22 22 22 21 20 19 18 16 15 15 15 16 16 16 16 16 15 15 15 15 15 14 14 14 14 14 14 14 14 14 14 14 14 14
17 17 17 19 18 19 19 19 22 22 22 22 23 23 22 23 23 22 21 20 18 18 16 15 15 16 15 15 15 16 15 15 15 15 14 14 14 14 14 14 14 14 14 14 14 14 14 14 14
15 17 16 18 20 20 19 20 21 21 21 21 22 22 22 23 23 21 20 19 18 17 16 15 15 15 15 15 14 15 15 14 14 14 14 14 14 13 14 14 14 14 14 14 14 14 14 14 14
15 15 16 16 19 19 19 19 20 20 20 20 21 22 22 22 23 24 21 19 18 17 16 15 15 14 15 14 14 14 13 14 13 14 14 13 13 13 14 14 14 14 13 12 13 13 13 14 14
16 16 15 16 17 17 18 19 20 20 20 21 21 22 23 23 24 23 21 17 16 16 15 15 14 14 14 14 13 13 13 13 13 13 13 14 14 13 14 14 14 14 13 12 13 13 13 13 14
15 15 15 16 17 17 17 18 19 19 20 21 22 22 23 24 23 22 19 16 16 15 14 14 14 14 14 14 13 13 13 13 13 14 14 13 13 13 13 13 13 13 12 12 13 13 13 13 13
15 14 15 15 16 17 17 17 19 20 21 21 21 22 22 23 23 22 18 17 16 16 14 14 13 14 13 13 13 13 13 13 13 13 13 13 13 13 13 13 12 12 12 12 13 13 14 14 13
14 15 15 15 15 15 17 16 18 19 20 21 22 22 23 23 22 22 19 18 16 16 15 13 13 13 13 13 14 14 13 13 13 13 13 12 12 13 13 13 13 13 12 12 13 13 14 14 13
15 15 15 15 15 14 16 15 18 19 20 21 22 22 23 23 22 21 19 18 16 16 15 13 13 13 13 13 14 13 13 13 13 13 13 13 12 12 12 12 14 12 12 12 13 13 14 14 14
15 15 15 15 14 14 16 16 18 19 20 21 22 22 21 21 21 20 19 17 16 15 14 12 12 12 13 13 13 13 14 13 13 13 13 13 13 12 12 12 12 13 13 13 13 14 13 14 14
15 14 14 14 14 16 17 16 18 19 17 18 18 18 18 18 19 19 18 17 16 15 13 12 12 12 12 13 13 12 13 13 13 13 13 13 13 12 12 12 13 13 14 14 13 13 13 14 14
14 15 15 14 15 15 17 17 18 17 17 17 17 16 16 17 17 19 18 17 16 15 13 13 14 13 12 12 12 12 12 13 13 13 12 13 12 12 13 13 12 13 13 12 13 14 13 14 14
13 13 14 12 14 14 17 18 18 18 17 17 16 15 15 15 17 18 18 17 16 15 14 15 14 13 12 11 12 11 12 12 13 13 13 12 12 12 12 12 12 11 12 13 13 13 13 14 14
14 14 13 13 14 15 17 17 17 16 16 16 15 14 13 13 16 17 17 16 15 15 14 13 13 12 12 11 12 12 11 12 13 13 13 12 12 12 12 12 12 11 11 11 12 12 11 12 13
13 12 13 12 13 15 15 17 16 15 14 14 13 12 12 11 14 15 16 16 15 14 13 12 12 12 12 12 12 12 12 12 12 13 12 13 13 12 12 12 12 12 11 11 11 11 11 11 12
14 13 14 13 14 13 13 16 16 14 13 13 12 11 11 11 10 12 15 15 14 13 13 12 12 12 12 12 12 12 12 11 11 12 12 12 12 12 12 12 12 12 12 11 11 11 11 11 11

GFSSGP_925_temp_084.txt.gz
Temp
20 20 22 25 27 28 30 31 31 30 30 30 30 31 31 32 32 31 28 26 25 24 23 22 24 22 21 21 22 22 22 22 21 21 21 21 21 20 20 20 20 20 20 19 18 19 19 19 19
21 21 24 27 27 29 31 31 30 31 30 29 29 30 30 31 31 30 28 26 25 25 23 21 22 22 20 21 21 22 22 21 21 21 21 20 20 19 20 20 20 20 20 19 19 18 18 18 18
21 23 27 27 28 29 31 31 31 30 29 29 30 30 31 31 30 30 28 25 24 24 23 22 22 21 20 21 21 22 22 21 21 20 19 20 19 19 20 19 19 20 19 19 19 19 18 18 18
22 25 26 26 28 29 30 31 30 29 29 29 30 30 31 29 29 29 27 25 24 23 22 21 22 19 20 21 21 21 21 21 20 20 19 19 21 21 19 19 19 19 19 19 19 18 18 18 18
23 27 26 26 28 29 29 29 29 29 29 29 30 30 30 30 28 27 26 25 24 23 22 21 22 21 21 20 20 21 21 20 19 19 21 20 20 19 19 20 20 19 19 19 19 18 18 18 18
25 26 26 27 28 28 28 30 28 28 29 29 29 29 30 28 28 27 26 25 24 23 21 20 21 20 19 19 20 20 21 21 19 20 21 20 20 20 20 19 19 19 19 19 18 18 18 17 17
24 25 26 27 28 27 27 29 27 28 29 30 29 28 30 30 27 25 25 24 23 22 21 19 19 18 18 18 19 20 20 20 21 20 21 20 20 19 18 17 18 18 17 18 18 18 17 17 17
25 25 25 27 26 26 28 27 28 28 29 29 29 28 29 29 25 24 24 23 22 21 19 19 19 18 18 18 18 19 19 19 19 20 20 20 19 19 18 17 18 18 17 17 18 18 18 17 17
24 24 25 26 25 26 27 26 28 28 27 28 28 29 28 26 24 24 24 23 23 21 21 19 18 18 18 18 18 18 18 18 19 19 19 18 18 17 17 18 18 17 18 18 17 18 18 18 17
23 24 25 27 25 25 26 27 27 27 27 27 28 29 27 26 26 25 25 25 24 22 21 20 18 18 18 18 18 18 18 18 18 17 18 18 17 16 16 16 17 18 18 18 17 18 18 18 16
23 23 26 24 24 25 25 26 26 26 25 27 27 28 28 27 27 26 26 26 26 24 20 19 18 18 19 18 17 18 18 17 17 17 18 17 17 16 16 17 17 17 17 17 16 17 18 17 17
21 23 23 24 24 24 24 25 25 26 26 27 28 28 27 27 27 27 27 27 26 24 20 18 17 18 18 17 17 18 17 17 17 17 16 17 17 17 17 16 17 16 17 16 15 16 16 16 17
21 23 24 23 23 23 24 24 24 25 26 27 27 27 26 26 28 28 27 27 27 24 22 18 17 17 17 17 16 17 17 16 17 16 15 16 16 17 17 17 17 15 15 16 15 16 16 16 17
23 22 22 23 22 23 23 23 24 24 26 25 25 26 26 27 28 29 28 27 27 25 23 19 18 18 18 18 16 16 16 17 16 16 16 15 16 16 16 16 15 14 15 15 15 16 16 17 17
21 20 22 23 23 22 23 22 23 25 26 25 26 26 27 27 28 28 28 28 26 25 23 19 18 17 18 18 18 16 16 15 15 15 15 15 16 16 16 16 15 14 15 15 15 16 16 18 18
19 20 20 23 23 22 22 22 25 25 25 26 26 27 27 28 28 28 28 27 26 25 23 19 17 17 17 18 17 16 15 15 15 15 15 14 15 15 15 15 15 14 14 15 15 15 17 18 18
19 19 21 21 23 23 23 23 25 25 24 25 26 27 27 28 28 28 28 27 26 25 23 19 17 17 17 17 16 16 15 15 15 15 15 14 14 14 15 15 15 14 14 14 16 15 17 18 18
19 18 20 20 22 21 21 22 24 25 25 24 25 26 27 27 28 29 28 27 25 24 22 20 17 18 17 15 15 15 14 14 15 15 15 14 14 14 14 14 14 14 13 13 14 15 16 18 18
19 19 18 20 21 20 20 22 23 24 25 25 25 25 26 27 28 28 28 26 24 23 21 20 17 17 15 15 15 14 15 14 14 14 14 14 14 14 14 14 14 14 13 13 14 15 16 16 17
18 18 19 20 20 19 20 21 23 24 24 24 25 25 26 27 28 29 28 26 23 22 21 19 17 16 16 16 16 15 14 14 15 15 15 15 14 14 14 14 14 13 13 13 14 15 15 17 16
18 18 18 19 19 20 20 22 24 24 24 24 25 25 26 26 27 28 28 26 23 22 21 18 17 17 16 17 15 15 14 14 14 15 15 14 14 13 13 13 13 13 13 12 13 14 16 16 17
17 19 18 18 18 19 21 20 24 24 24 24 24 25 26 26 27 28 28 28 24 22 21 17 17 17 15 16 15 16 16 15 16 14 13 13 13 13 13 13 13 13 13 12 12 14 16 17 16
18 18 18 18 18 18 19 19 24 24 23 24 25 25 26 27 27 28 28 28 25 22 20 17 16 17 15 15 17 16 16 16 16 14 13 13 13 13 13 13 13 13 12 12 12 13 15 16 16
18 17 17 18 18 16 20 20 23 23 21 22 22 23 24 24 24 25 27 27 24 22 20 16 15 15 15 15 17 16 16 15 15 13 13 13 12 12 12 12 12 12 12 12 12 14 15 15 16
17 17 17 17 16 19 20 20 22 21 21 21 20 21 22 22 23 23 24 24 23 21 17 14 14 14 14 16 17 15 16 15 15 13 13 13 12 12 12 11 11 12 12 12 12 13 14 14 15
17 18 18 17 19 20 20 20 22 21 21 21 21 20 20 19 21 23 23 22 22 20 15 14 14 14 14 17 16 14 16 15 14 13 13 13 13 12 13 12 12 11 11 11 12 12 12 13 14
16 16 18 16 17 17 21 22 21 21 20 19 19 18 17 16 17 20 23 22 20 19 14 14 14 14 14 15 14 13 15 15 14 13 14 14 14 13 12 12 12 12 12 11 12 13 13 13 13
17 18 14 16 16 17 21 21 21 19 17 17 18 17 15 14 13 16 21 20 20 18 14 15 17 14 14 14 13 13 14 15 15 15 14 14 13 12 12 12 12 12 12 11 12 12 11 12 13
15 14 14 14 15 17 19 20 19 16 15 17 17 14 13 11 11 12 18 19 18 16 15 15 16 14 13 14 13 13 13 14 14 14 14 14 13 12 12 12 12 11 11 12 12 12 11 11 11
17 16 16 16 15 15 15 19 19 17 17 17 14 13 11 10 9 10 11 16 16 15 14 14 14 13 13 14 13 14 14 13 13 13 14 14 14 13 13 12 12 12 11 11 11 11 11 12 12

GFSSGP_925_temp_087.txt.gz
Temp
20 21 25 28 28 30 31 34 36 34 33 34 33 34 34 36 34 32 32 30 29 27 24 24 24 24 23 22 22 22 22 22 22 22 22 21 21 21 20 20 20 20 20 20 19 19 19 19 19
22 24 26 29 28 30 33 35 34 34 35 33 32 32 32 33 35 33 32 29 28 28 25 23 24 23 22 22 22 22 22 21 21 21 21 21 21 20 21 20 20 20 20 19 19 19 19 19 19
22 25 28 29 29 30 32 36 34 34 33 32 33 33 34 33 34 33 31 29 29 28 26 24 24 23 22 22 22 22 22 22 21 20 20 20 20 20 21 21 20 20 20 19 19 19 19 19 18
25 27 28 28 29 32 33 35 34 33 32 33 33 32 33 33 32 32 30 29 28 28 27 25 25 24 22 22 21 22 21 21 20 20 20 20 21 21 21 20 20 20 20 19 19 19 19 18 18
26 29 27 29 29 31 34 33 33 32 33 32 32 32 32 32 31 31 30 28 28 27 26 24 24 24 22 21 21 21 21 19 19 19 20 21 21 20 20 20 20 20 20 20 19 19 19 18 18
27 28 28 29 30 32 33 34 33 32 32 32 32 31 32 32 31 30 29 28 27 26 24 22 23 23 22 21 21 21 21 19 19 20 20 21 20 20 20 20 20 20 18 18 19 19 18 18 18
26 28 27 29 30 32 33 32 31 32 31 32 33 31 32 33 29 29 29 28 26 25 24 22 20 19 20 20 20 20 20 20 19 21 21 21 20 20 20 19 19 19 17 17 17 18 18 18 18
27 27 27 29 29 30 32 31 31 31 31 33 32 30 30 30 28 27 28 27 26 24 23 22 21 20 19 19 19 19 19 19 19 20 20 20 20 19 19 19 19 18 19 18 17 18 19 19 19
27 26 26 28 29 30 30 30 32 31 30 31 31 31 32 29 28 27 28 27 25 24 23 21 20 21 20 19 19 18 19 19 19 19 20 20 19 19 19 19 18 18 19 19 18 18 18 19 19
26 25 26 29 31 30 29 30 30 29 29 29 30 31 31 29 29 29 29 28 26 25 24 22 19 19 19 20 19 19 19 19 19 19 19 19 19 18 18 18 18 18 18 18 18 18 18 18 17
26 25 28 29 30 28 28 28 29 28 28 29 29 30 31 31 29 29 28 29 28 27 25 23 21 19 19 20 20 21 20 19 19 19 19 20 18 17 17 16 17 16 18 18 17 17 18 18 17
25 26 27 28 28 28 26 27 27 28 28 29 29 30 30 30 29 29 30 29 29 28 26 24 22 19 21 22 21 21 19 19 19 18 18 18 17 17 17 17 16 16 17 17 17 17 17 17 17
25 26 27 27 27 26 27 26 26 27 28 29 29 29 29 29 30 29 29 30 29 29 27 24 22 20 22 21 19 19 18 18 17 18 17 18 17 17 17 17 17 17 16 16 16 16 16 16 17
26 26 25 26 26 27 25 26 27 27 28 28 28 28 28 29 29 29 30 30 29 29 28 24 22 21 21 19 18 17 17 17 17 18 17 17 17 17 17 17 17 17 16 15 16 16 16 16 17
24 23 24 25 26 25 26 25 25 28 28 28 28 29 29 28 29 29 30 30 30 29 29 25 22 21 20 20 19 17 17 17 16 17 17 17 17 17 17 18 16 16 15 15 16 15 15 16 17
21 22 22 26 27 26 26 24 27 29 28 28 28 28 29 29 29 29 30 30 30 30 29 26 22 21 21 21 21 19 16 16 16 17 17 17 17 17 17 17 16 16 15 15 15 14 15 16 18
22 21 23 25 25 25 25 25 27 28 28 27 27 28 29 29 30 30 30 30 30 30 29 26 22 21 20 21 21 20 17 16 17 16 16 16 16 16 16 16 15 16 15 14 14 14 15 16 18
22 23 24 23 26 25 24 24 25 26 26 26 27 28 28 29 30 30 30 30 30 30 28 26 22 21 20 21 19 18 17 17 16 15 15 15 15 15 15 15 15 15 15 14 14 14 15 16 18
22 22 22 24 25 23 23 23 24 25 26 26 27 27 28 28 30 30 30 30 30 29 27 26 22 20 20 19 17 18 16 16 15 14 15 15 15 14 14 15 14 14 14 14 14 14 15 15 18
20 20 21 23 24 23 23 23 25 25 25 27 27 27 28 28 29 29 30 30 28 27 26 25 22 21 19 18 19 18 18 18 17 16 15 14 15 14 14 14 14 14 14 14 14 14 14 15 18
20 19 21 21 22 23 23 24 25 26 27 27 28 28 28 28 28 29 29 30 28 27 26 25 23 21 19 19 20 19 18 17 16 15 16 16 15 15 14 14 14 14 14 13 14 14 14 15 17
20 22 21 20 20 20 25 22 25 26 27 27 27 27 27 27 28 29 29 30 29 26 25 24 23 21 20 20 20 19 18 18 17 18 18 17 15 15 15 14 14 14 13 13 13 14 15 15 16
20 21 20 20 20 20 21 22 24 27 25 25 25 26 26 28 28 28 29 29 29 27 25 24 22 21 20 20 20 19 19 20 19 18 16 15 14 13 13 13 13 13 13 13 13 13 14 15 17
21 19 19 19 20 19 21 22 24 26 24 23 24 24 24 25 26 28 28 28 29 28 25 23 21 21 19 20 19 19 20 19 18 16 15 14 13 13 13 13 13 13 13 13 13 13 14 14 16
19 18 17 18 18 18 23 22 24 24 23 23 22 23 23 22 22 24 26 28 28 28 24 22 20 20 19 19 20 19 19 18 18 17 15 13 13 12 12 12 12 13 13 12 12 13 13 14 15
19 19 18 18 19 20 22 21 24 24 22 22 22 22 22 21 20 20 23 26 27 27 24 19 17 18 17 19 20 19 18 18 18 16 14 13 13 12 12 12 12 12 12 12 12 13 13 13 15
19 18 20 19 20 19 21 24 24 23 21 22 22 21 20 19 18 17 18 26 25 25 17 16 16 16 16 20 20 18 17 17 17 16 14 14 13 13 12 12 11 12 12 12 12 12 12 13 14
20 19 16 17 17 18 22 23 23 19 20 21 21 20 19 18 16 13 15 18 23 19 16 15 15 16 17 20 18 16 17 16 17 16 16 15 14 13 12 12 12 11 11 11 11 12 12 13 13
18 17 17 18 18 18 19 20 20 19 21 20 20 19 17 16 13 10 10 11 17 17 15 14 15 16 16 18 16 16 16 15 15 15 15 15 15 15 14 12 12 12 12 12 11 11 11 12 12
17 18 18 16 18 19 18 19 20 21 21 20 19 18 16 14 12 8 8 8 14 16 15 15 15 15 15 17 15 15 15 15 15 15 15 15 15 14 13 13 12 12 11 11 11 11 11 11 11

GFSSGP_925_temp_093.txt.gz
Temp
22 22 22 21 19 18 20 23 26 28 29 29 31 30 29 29 30 26 26 29 28 26 24 25 25 25 24 23 23 23 23 23 22 22 22 22 23 22 22 21 21 20 21 20 20 19 20 20 20
22 22 21 19 18 18 19 24 26 29 31 30 31 31 30 31 30 28 26 27 27 27 25 24 25 25 24 23 23 22 22 22 22 22 22 22 22 22 21 21 21 20 20 19 19 19 19 20 20
21 21 18 18 18 19 20 25 27 29 31 31 32 32 31 31 29 28 28 28 27 26 25 25 25 25 24 23 22 22 22 22 22 22 21 21 21 21 21 21 20 20 20 20 20 19 19 19 19
20 19 18 19 19 21 24 26 28 28 31 32 31 31 31 32 31 29 28 28 26 26 25 25 25 24 24 23 22 22 21 21 21 21 21 21 21 21 21 21 20 20 20 20 20 19 19 19 19
21 18 18 18 20 22 25 27 28 29 30 31 30 30 30 30 30 29 29 27 27 26 25 25 25 24 23 22 22 21 21 21 21 20 20 20 20 20 21 21 20 20 20 20 19 19 19 19 19
18 18 18 19 20 23 26 27 28 29 30 30 29 30 30 32 30 30 29 27 28 26 25 25 24 23 22 22 22 21 21 20 19 19 19 20 20 20 20 20 20 19 19 19 19 19 19 19 19
18 18 18 19 21 24 26 27 28 28 28 29 30 28 28 26 29 29 29 28 27 26 25 24 23 22 22 21 21 21 20 20 19 19 19 19 20 20 20 20 19 19 19 19 19 20 20 19 19
19 19 19 20 22 23 26 28 28 28 29 31 31 28 28 26 29 29 28 27 26 26 25 24 22 22 22 21 21 21 20 21 18 19 19 19 19 19 20 20 19 19 19 20 20 19 20 21 19
22 19 20 20 22 24 26 26 27 29 30 30 30 29 26 28 28 28 27 25 25 24 24 23 22 21 21 20 20 20 20 20 20 18 19 19 19 19 19 19 19 19 19 19 19 19 20 20 19
19 19 20 22 23 24 26 23 25 26 26 28 29 28 29 28 28 26 26 24 23 23 23 23 22 21 21 20 20 20 19 20 20 19 19 19 19 19 19 19 19 19 19 19 19 18 18 19 19
19 19 21 23 24 24 24 24 25 25 25 26 27 26 26 26 25 24 26 25 24 24 23 22 21 20 20 19 19 19 19 19 20 20 20 19 19 19 19 18 18 18 19 18 18 18 18 18 19
19 21 22 23 24 24 24 23 25 24 24 25 25 26 27 25 23 23 24 27 25 23 23 23 22 21 20 20 20 20 19 19 20 19 19 19 19 19 18 18 17 18 18 18 18 18 18 18 18
21 22 23 24 24 24 24 24 24 24 24 24 25 26 24 24 23 26 27 28 29 24 23 23 23 22 21 20 20 20 20 20 20 19 19 19 19 18 18 18 17 17 17 17 17 17 17 17 18
22 22 22 22 22 23 23 22 23 24 24 24 26 25 25 24 23 25 26 27 28 28 23 22 23 22 22 21 20 20 20 20 19 19 19 19 19 18 18 18 17 17 16 16 16 16 17 17 17
21 20 21 21 21 22 22 22 22 23 23 24 25 25 25 24 25 24 28 27 28 29 26 21 23 22 21 21 21 20 20 20 19 19 19 18 18 18 18 18 19 16 16 16 16 16 17 17 17
19 19 18 21 21 22 21 20 23 24 23 24 24 24 25 25 24 26 28 29 28 28 28 22 22 22 21 21 21 21 20 19 19 18 18 18 18 18 18 18 18 18 17 15 16 16 16 16 16
17 16 17 19 21 22 21 21 23 22 23 23 22 21 22 22 23 25 27 28 29 28 28 24 21 22 21 21 21 20 20 18 18 17 18 17 18 17 17 17 17 17 16 16 16 16 16 15 14
16 16 17 18 20 20 19 19 21 22 24 22 21 22 23 24 22 24 27 28 28 29 28 25 21 22 21 20 20 20 19 18 17 17 17 17 17 17 17 17 17 16 16 16 15 15 15 15 14
18 18 18 18 20 19 19 19 20 21 21 22 23 23 24 22 23 25 26 27 27 28 27 25 21 20 20 19 18 17 16 17 17 17 18 17 17 17 17 16 16 16 16 16 16 14 14 14 14
18 18 18 19 20 19 19 19 20 21 21 23 24 24 24 23 25 25 26 26 27 27 26 24 20 19 20 19 18 17 17 17 17 17 17 17 16 16 16 16 16 16 16 16 16 14 14 14 14
19 18 18 18 19 19 18 18 19 22 23 24 24 24 25 23 24 25 25 26 26 25 24 22 20 20 19 20 19 18 17 17 17 17 16 16 16 16 16 16 17 17 16 16 15 14 14 14 14
18 20 20 20 19 16 20 16 18 20 22 23 25 21 23 19 20 21 23 23 25 26 24 21 20 19 19 20 19 19 17 16 16 16 16 16 16 15 15 16 17 17 16 15 15 15 14 14 13
19 20 19 19 17 16 17 16 18 21 22 23 20 20 19 19 19 18 19 18 20 24 22 20 20 19 20 19 19 19 17 17 16 16 16 16 16 15 15 15 16 15 15 14 14 14 13 14 14
20 19 19 17 16 15 17 17 17 19 21 19 19 18 19 18 18 18 18 17 17 19 21 20 20 19 19 19 19 18 18 17 17 16 16 15 15 14 15 15 15 15 14 14 14 14 13 13 13
19 17 13 13 13 15 18 16 18 18 19 18 17 18 17 17 16 15 15 14 14 14 18 20 20 18 19 19 19 18 18 18 18 17 16 15 15 15 15 14 14 14 14 14 14 14 14 13 13
17 16 13 14 13 15 18 15 17 15 14 15 19 18 17 15 13 12 12 12 11 14 17 21 20 18 17 18 19 19 19 19 18 17 17 16 15 16 14 13 13 13 13 14 13 14 13 13 13
17 16 16 14 15 14 16 18 18 15 14 12 17 16 14 13 11 10 10 10 9 10 15 20 19 18 18 18 19 19 19 19 18 17 17 16 15 14 12 13 12 12 12 13 13 13 13 13 13
16 18 13 12 13 13 17 18 15 14 13 14 15 14 13 12 10 9 8 8 7 8 10 17 17 16 18 20 19 19 19 19 17 17 16 15 15 13 12 12 12 12 12 12 13 13 13 13 13
16 15 16 15 14 13 14 15 13 13 12 14 14 13 11 10 8 7 7 6 5 6 7 10 16 17 18 20 19 18 18 18 17 16 15 14 14 13 13 12 11 12 12 12 12 13 12 12 12
15 12 11 11 14 14 14 15 12 12 13 13 13 12 10 8 7 6 5 5 4 4 5 6 10 15 16 18 17 18 17 17 16 17 16 15 14 13 13 12 12 12 12 12 12 12 12 12 12

GFSSGP_925_temp_096.txt.gz
Temp
21 21 21 21 18 15 17 19 22 24 26 29 28 29 29 29 29 25 23 25 27 25 24 23 24 24 24 24 24 24 23 23 23 23 23 22 22 22 22 21 21 20 20 20 20 20 20 20 20
21 21 21 16 16 17 17 20 23 24 26 27 29 30 30 29 27 23 24 25 26 26 25 24 24 24 23 23 23 23 23 23 23 22 22 22 22 22 21 21 21 20 20 20 20 20 20 20 20
20 20 17 17 14 16 17 22 24 26 26 27 31 31 31 28 26 25 26 25 26 26 25 24 24 23 23 23 23 23 23 22 22 22 22 21 21 21 21 21 21 20 20 20 20 20 20 20 20
20 18 15 16 17 17 20 23 23 25 26 27 30 31 30 29 27 28 26 26 26 26 25 25 24 22 23 22 22 22 22 22 22 22 21 21 21 21 21 21 21 20 20 20 20 20 20 20 20
20 14 16 16 17 18 21 23 23 24 25 27 29 29 29 28 29 28 26 27 27 26 25 25 23 22 22 22 22 22 22 21 21 21 21 21 21 20 20 20 20 20 20 20 20 20 20 19 19
17 15 15 17 18 20 21 23 23 25 26 26 27 28 28 27 26 25 26 28 28 26 25 24 24 23 23 22 22 21 21 21 21 20 20 20 20 20 20 20 20 20 20 20 20 19 19 19 19
16 14 15 17 19 20 23 24 24 25 25 26 28 27 27 26 26 27 28 27 27 26 25 24 23 23 22 22 21 21 21 21 19 19 19 20 20 20 20 20 19 20 20 20 19 19 19 19 19
16 15 17 17 19 20 23 24 26 25 25 27 27 27 27 26 26 24 24 24 24 24 25 25 24 22 22 21 21 21 21 21 18 18 18 19 19 19 19 19 19 19 19 20 20 20 20 19 19
19 16 16 18 19 21 23 22 25 25 24 25 26 28 27 26 26 23 22 21 21 22 24 24 24 22 21 21 20 20 20 20 18 18 18 19 19 19 19 19 19 19 19 19 19 20 19 19 19
17 15 17 19 20 21 22 21 22 23 23 24 25 25 25 27 26 23 21 20 20 20 22 23 24 23 21 20 20 19 19 19 18 18 18 19 19 19 19 19 19 19 18 19 19 19 19 19 18
17 17 19 20 21 21 20 21 22 23 23 24 23 24 25 25 24 22 22 22 23 24 22 23 23 23 22 20 20 19 19 19 19 19 19 19 19 19 19 19 19 18 18 18 18 18 18 18 18
17 19 20 21 21 21 21 22 22 22 23 24 23 24 24 24 22 21 21 22 22 21 24 23 23 23 23 22 20 19 19 19 19 19 19 19 19 19 19 19 19 18 18 18 18 18 18 18 18
18 19 20 21 21 21 22 22 22 23 22 22 22 23 22 22 21 25 26 24 23 21 22 23 22 23 22 21 21 20 19 19 19 19 19 19 19 19 18 19 18 18 18 17 18 18 18 18 18
19 20 19 20 20 20 21 20 21 22 22 22 22 22 21 21 21 23 23 26 24 22 21 23 22 23 22 21 20 20 20 19 19 19 19 19 19 19 18 18 18 18 17 17 18 17 17 17 17
19 18 18 20 20 20 21 21 20 21 21 21 22 22 22 22 22 21 25 24 27 25 23 22 22 22 21 21 21 20 20 19 19 19 19 19 19 18 18 18 17 17 17 17 16 16 16 17 16
18 17 16 20 20 20 20 20 20 20 20 22 23 22 23 22 23 24 25 25 26 27 24 23 22 21 21 21 20 20 20 20 19 19 19 18 18 18 18 18 17 17 16 15 16 15 15 16 16
16 15 16 17 19 19 19 19 21 20 20 20 20 20 20 19 20 23 24 25 26 27 26 23 22 21 20 21 21 20 20 20 19 19 18 18 18 18 18 17 17 17 15 15 15 14 15 15 16
14 15 15 15 17 19 17 17 19 19 18 19 18 18 18 20 20 22 25 25 25 25 27 24 23 22 19 20 18 19 20 19 19 19 18 17 17 17 17 17 17 16 15 15 15 15 14 15 15
16 16 15 16 17 18 17 17 18 17 17 17 19 19 19 20 22 22 24 25 26 26 24 22 21 20 18 18 17 17 18 18 18 18 18 17 17 17 17 17 16 16 16 15 15 15 14 14 15
15 15 15 17 18 17 17 18 19 19 17 19 20 20 21 22 23 23 22 24 25 25 25 22 21 19 19 18 18 17 17 17 18 18 17 17 17 17 17 17 16 16 16 15 14 14 14 14 14
16 16 16 17 18 17 17 17 18 20 19 20 20 20 21 21 22 23 23 22 25 24 24 21 21 20 18 18 18 17 16 16 17 17 17 17 17 16 16 16 16 16 16 15 15 14 14 14 14
16 18 18 18 16 16 17 15 18 19 19 20 20 19 16 15 16 17 17 17 16 17 21 22 20 19 18 18 17 17 17 16 16 15 17 17 16 16 16 16 16 16 16 15 15 15 15 14 14
17 18 18 17 16 15 17 15 18 18 19 19 19 18 16 15 15 15 15 15 14 15 17 21 19 19 18 18 17 17 16 16 16 16 16 16 16 16 16 15 15 15 15 15 14 14 14 14 14
18 18 17 17 15 14 17 14 16 17 16 14 16 16 15 14 13 12 12 12 11 11 15 19 19 19 18 18 17 18 16 15 15 15 15 15 16 16 16 15 15 15 16 16 15 14 14 13 13
17 15 13 12 11 14 17 15 17 17 14 13 13 15 14 12 11 10 10 9 10 10 10 16 18 18 17 18 17 17 17 16 16 15 15 14 14 14 14 14 15 15 16 15 15 14 14 14 13
15 16 14 13 13 13 15 14 15 15 15 14 13 13 12 10 10 9 9 9 8 9 9 14 18 18 17 17 16 17 16 17 17 16 15 15 14 14 15 15 15 15 14 14 14 14 14 13 13
15 14 15 14 14 13 14 15 16 15 14 13 12 11 10 9 8 7 8 7 7 7 7 10 17 17 17 17 16 16 17 17 17 16 16 16 16 14 14 15 15 14 13 13 13 13 13 13 13
15 15 13 11 12 13 14 15 14 13 12 12 12 10 9 8 7 7 7 6 5 5 6 8 13 16 15 15 16 17 17 18 18 17 16 16 15 15 14 15 13 12 11 12 12 13 13 13 13
12 12 12 13 13 13 13 13 12 13 12 12 11 10 8 6 5 5 5 5 4 4 4 5 7 12 17 16 15 16 17 17 17 17 16 16 15 15 14 13 12 11 12 11 12 12 13 13 13
11 12 11 11 12 12 12 13 12 11 12 11 9 8 7 5 4 3 4 4 4 3 3 4 5 8 12 15 15 16 16 17 17 16 15 15 15 14 13 12 12 11 11 11 12 12 12 13 13